Location: Champs
(48.8539°N, 2.6040°E)
Time: 04:28:33
(UTC+00:00)

SL-27 R/B - Pass Details

Date: 26 October 2021
Orbit: 415 x 466 km, 74.7° (Epoch: 04 December)

Event Time Altitude Azimuth Distance (km) Brightness Sun altitude
Exits shadow 05:17:47 16° 309° (NW) 1,208 4.1 -12.0°
Drops below altitude 10° 05:19:47 10° 345° (NNW) 1,523 4.9 -11.6°
Sets 05:22:29 0° 9° (N) 2,404 6.1 -11.2°
